カタログに戻る

STARLINK-30524

運用中通信VLEO
NORAD 57965·PAYLOAD·🇺🇸 United States

打ち上げ Sep 30, 2023 から Cape Canaveral Space Force Station

Loading…

次のパス (今後24時間)

TLE

最新Source: CelesTrak SupGP

元期: Sep 15, 2026, 02:48 UTC

1 57965C 23151B   26258.11715278  .00018910  00000+0  68501-3 0  2588
2 57965  43.0041 346.4490 0002243 260.4068 123.9743 15.27563463    15

AllMySatでSTARLINK-30524をリアルタイム追跡

Download on the App Store